カタログに戻る

FENGYUN 1C DEB

運用中PO
NORAD 31511·DEBRIS·🇨🇳 China

打ち上げ May 10, 1999 から Taiyuan Satellite Launch Center

Loading…

次のパス (今後24時間)

TLE

最新Source: Space-Track

元期: Sep 13, 2026, 07:20 UTC

1 31511U 99025BXA 26256.30588332  .00000977  00000-0  38009-3 0  9995
2 31511  99.0809  81.0011 0106968 151.8525 208.8495 14.29092003997210

AllMySatでFENGYUN 1C DEBをリアルタイム追跡

Download on the App Store